RYR553V LOWI-EGCC

Flight info

Callsign RYR553V
Flight time 1h 52m
Altitude 32000
Route KPT L856 RAVED Y112 HOC DCT LUL/N0458F340 DCT RLP DCT ROTSI DCT KOTUN DCT AMAXA DCT VESAN DCT RATUK DCT SOVAT L613 SANDY UN57 WELIN T420 ELVOS
Aircraft B738/M-SDE2E3FGHIRWXY/LB1

Departure

Time 2026-05-07 17:25
Airport Innsbruck Airport (LOWI)

Arrival

Time 2026-05-07 19:18
Airport Manchester Airport (EGCC)
Time Latitude Longitude Altitude Speed Heading
2026-05-07 16:42 47.25801 11.34811 1906 ft 0 kts 171°
2026-05-07 17:12 47.25813 11.34808 1894 ft 4 kts 171°
2026-05-07 17:12 47.25836 11.34804 1895 ft 4 kts 196°
2026-05-07 17:12 47.25852 11.34825 1901 ft 4 kts 255°
2026-05-07 17:13 47.25856 11.34849 1895 ft 1 kts 261°
2026-05-07 17:13 47.25856 11.34852 1896 ft 0 kts 261°
2026-05-07 17:18 47.25854 11.34830 1903 ft 6 kts 261°
2026-05-07 17:18 47.25844 11.34728 1898 ft 12 kts 261°
2026-05-07 17:18 47.25830 11.34600 1906 ft 13 kts 261°
2026-05-07 17:18 47.25816 11.34475 1902 ft 12 kts 261°
2026-05-07 17:19 47.25802 11.34352 1900 ft 12 kts 260°
2026-05-07 17:19 47.25788 11.34233 1902 ft 12 kts 260°
2026-05-07 17:19 47.25775 11.34117 1906 ft 11 kts 263°
2026-05-07 17:19 47.25770 11.34003 1906 ft 11 kts 278°
2026-05-07 17:20 47.25781 11.33951 1896 ft 0 kts 296°
2026-05-07 17:21 47.25784 11.33942 1901 ft 2 kts 296°
2026-05-07 17:21 47.25798 11.33906 1897 ft 6 kts 302°
2026-05-07 17:21 47.25826 11.33844 1901 ft 8 kts 306°
2026-05-07 17:21 47.25864 11.33765 1899 ft 10 kts 306°
2026-05-07 17:22 47.25908 11.33678 1908 ft 11 kts 306°
2026-05-07 17:22 47.25932 11.33569 1907 ft 13 kts 263°
2026-05-07 17:22 47.25912 11.33424 1903 ft 16 kts 258°
2026-05-07 17:22 47.25874 11.33263 1897 ft 17 kts 236°
2026-05-07 17:23 47.25834 11.33107 1899 ft 9 kts 279°
2026-05-07 17:23 47.25843 11.33093 1894 ft 2 kts 331°
2026-05-07 17:23 47.25857 11.33093 1894 ft 2 kts
2026-05-07 17:23 47.25870 11.33105 1904 ft 2 kts 48°
2026-05-07 17:24 47.25878 11.33124 1892 ft 2 kts 62°
2026-05-07 17:24 47.25883 11.33144 1898 ft 2 kts 70°
2026-05-07 17:24 47.25885 11.33153 1897 ft 0 kts 73°
2026-05-07 17:25 47.25902 11.33291 1905 ft 48 kts 81°
2026-05-07 17:25 47.26000 11.34165 1896 ft 123 kts 81°
2026-05-07 17:25 47.26162 11.35721 1983 ft 178 kts 81°
2026-05-07 17:25 47.26346 11.37523 3005 ft 171 kts 82°
2026-05-07 17:26 47.26461 11.39204 4085 ft 160 kts 84°
2026-05-07 17:26 47.26629 11.40943 4535 ft 186 kts 81°
2026-05-07 17:26 47.26851 11.42886 4883 ft 198 kts 81°
2026-05-07 17:26 47.27151 11.44920 5140 ft 211 kts 73°
2026-05-07 17:27 47.27679 11.47020 5284 ft 231 kts 68°
2026-05-07 17:27 47.28333 11.49287 5436 ft 250 kts 66°
2026-05-07 17:27 47.28963 11.51769 5675 ft 268 kts 81°
2026-05-07 17:27 47.28668 11.54466 6298 ft 273 kts 119°
2026-05-07 17:28 47.27350 11.56440 6964 ft 276 kts 153°
2026-05-07 17:28 47.25480 11.56999 7611 ft 279 kts 188°
2026-05-07 17:28 47.23712 11.55923 8309 ft 279 kts 222°
2026-05-07 17:28 47.22669 11.53605 9074 ft 272 kts 256°
2026-05-07 17:29 47.22579 11.50846 9788 ft 273 kts 274°
2026-05-07 17:29 47.22640 11.48028 10317 ft 282 kts 268°
2026-05-07 17:29 47.22428 11.45046 10472 ft 305 kts 260°
2026-05-07 17:29 47.21994 11.41892 10640 ft 324 kts 265°
2026-05-07 17:30 47.22339 11.38553 10754 ft 344 kts 294°
2026-05-07 17:30 47.23778 11.35651 10923 ft 361 kts 314°
2026-05-07 17:30 47.25294 11.32654 11204 ft 372 kts 292°
2026-05-07 17:30 47.26072 11.29007 11754 ft 374 kts 284°
2026-05-07 17:31 47.26752 11.25293 12385 ft 378 kts 285°
2026-05-07 17:31 47.27496 11.21561 13011 ft 380 kts 286°
2026-05-07 17:31 47.28290 11.17844 13645 ft 383 kts 287°
2026-05-07 17:31 47.29127 11.14093 14211 ft 387 kts 287°
2026-05-07 17:32 47.29989 11.10330 14800 ft 389 kts 288°
2026-05-07 17:32 47.30866 11.06542 15394 ft 392 kts 288°
2026-05-07 17:32 47.31756 11.02709 15914 ft 396 kts 288°
2026-05-07 17:32 47.32639 10.98905 16484 ft 399 kts 288°
2026-05-07 17:33 47.33549 10.94971 17038 ft 402 kts 288°
2026-05-07 17:33 47.34455 10.91050 17552 ft 406 kts 288°
2026-05-07 17:33 47.35366 10.87092 18113 ft 409 kts 288°
2026-05-07 17:33 47.36286 10.83096 18648 ft 411 kts 288°
2026-05-07 17:34 47.37199 10.79117 19108 ft 413 kts 288°
2026-05-07 17:34 47.38137 10.75099 19563 ft 416 kts 291°
2026-05-07 17:34 47.39589 10.71444 19980 ft 422 kts 309°
2026-05-07 17:34 47.41802 10.68498 20492 ft 426 kts 323°
2026-05-07 17:35 47.44217 10.66067 20970 ft 428 kts 324°
2026-05-07 17:35 47.46702 10.63599 21383 ft 431 kts 324°
2026-05-07 17:35 47.49234 10.61070 21817 ft 434 kts 324°
2026-05-07 17:35 47.51731 10.58551 22275 ft 436 kts 323°
2026-05-07 17:36 47.54241 10.55995 22714 ft 438 kts 323°
2026-05-07 17:36 47.56754 10.53420 23113 ft 441 kts 323°
2026-05-07 17:36 47.59276 10.50827 23514 ft 443 kts 323°
2026-05-07 17:36 47.61820 10.48205 23812 ft 446 kts 323°
2026-05-07 17:37 47.64373 10.45573 24148 ft 448 kts 323°
2026-05-07 17:37 47.66940 10.42925 24492 ft 449 kts 323°
2026-05-07 17:37 47.69509 10.40272 24832 ft 451 kts 323°
2026-05-07 17:37 47.71597 10.37268 26921 ft 380 kts 294°
2026-05-07 17:38 47.71719 10.33634 28306 ft 366 kts 243°
2026-05-07 17:38 47.70196 10.30159 26152 ft 434 kts 238°
2026-05-07 17:38 47.68656 10.26291 26259 ft 439 kts 248°
2026-05-07 17:38 47.67936 10.21889 26306 ft 445 kts 268°
2026-05-07 17:39 47.68362 10.17337 26435 ft 450 kts 289°
2026-05-07 17:39 47.69812 10.13212 26705 ft 454 kts 303°
2026-05-07 17:39 47.71720 10.09474 27153 ft 452 kts 308°
2026-05-07 17:39 47.73497 10.05670 27608 ft 448 kts 294°
2026-05-07 17:40 47.74293 10.01251 28031 ft 444 kts 273°
2026-05-07 17:40 47.74167 9.96679 28536 ft 441 kts 266°
2026-05-07 17:40 47.73902 9.92145 28947 ft 440 kts 265°
2026-05-07 17:40 47.73609 9.87630 29295 ft 440 kts 265°
2026-05-07 17:41 47.73373 9.83085 29695 ft 439 kts 267°
2026-05-07 17:41 47.73209 9.78622 30143 ft 437 kts 268°
2026-05-07 17:41 47.73084 9.74071 30521 ft 435 kts 268°
2026-05-07 17:41 47.72969 9.69642 30823 ft 434 kts 268°
2026-05-07 17:42 47.72763 9.65110 31148 ft 434 kts 263°
2026-05-07 17:42 47.72282 9.60702 31486 ft 433 kts 261°
2026-05-07 17:42 47.71727 9.56318 31813 ft 432 kts 260°
2026-05-07 17:42 47.71152 9.51945 32111 ft 431 kts 260°
2026-05-07 17:43 47.70588 9.47637 32404 ft 430 kts 260°
2026-05-07 17:43 47.70018 9.43223 32725 ft 429 kts 260°
2026-05-07 17:43 47.69463 9.38864 33041 ft 428 kts 261°
2026-05-07 17:43 47.68917 9.34529 33336 ft 428 kts 261°
2026-05-07 17:44 47.68381 9.30252 33622 ft 427 kts 261°
2026-05-07 17:44 47.67840 9.25924 33914 ft 426 kts 261°
2026-05-07 17:44 47.67296 9.21583 34019 ft 429 kts 261°
2026-05-07 17:44 47.66748 9.17221 34035 ft 432 kts 261°
2026-05-07 17:45 47.65636 9.08415 34083 ft 432 kts 261°
2026-05-07 17:45 47.65088 9.04098 34357 ft 428 kts 260°
2026-05-07 17:45 47.64537 8.99783 34719 ft 424 kts 260°
2026-05-07 17:46 47.63989 8.95492 35003 ft 423 kts 260°
2026-05-07 17:46 47.63440 8.91209 35160 ft 424 kts 260°
2026-05-07 17:46 47.62887 8.86914 35304 ft 425 kts 260°
2026-05-07 17:46 47.62332 8.82611 35508 ft 425 kts 259°
2026-05-07 17:47 47.61774 8.78297 35677 ft 425 kts 259°
2026-05-07 17:47 47.61216 8.74001 35821 ft 426 kts 259°
2026-05-07 17:47 47.60654 8.69683 36003 ft 426 kts 259°
2026-05-07 17:47 47.60090 8.65364 36005 ft 429 kts 259°
2026-05-07 17:48 47.58952 8.56695 36010 ft 427 kts 259°
2026-05-07 17:48 47.57824 8.48157 36020 ft 423 kts 259°
2026-05-07 17:49 47.56684 8.39572 36025 ft 421 kts 259°
2026-05-07 17:49 47.55551 8.31097 36021 ft 420 kts 259°
2026-05-07 17:50 47.54418 8.22669 36025 ft 420 kts 259°
2026-05-07 17:50 47.53262 8.14115 36031 ft 422 kts 259°
2026-05-07 17:51 47.52145 8.05859 36911 ft 400 kts 258°
2026-05-07 17:51 47.51598 8.01726 36250 ft 419 kts 259°
2026-05-07 17:51 47.51023 7.97484 36186 ft 423 kts 258°
2026-05-07 17:52 47.50423 7.93181 36064 ft 429 kts 258°
2026-05-07 17:52 47.49817 7.88868 36035 ft 428 kts 258°
2026-05-07 17:52 47.48629 7.80345 36012 ft 423 kts 258°
2026-05-07 17:53 47.47453 7.71807 36015 ft 424 kts 261°
2026-05-07 17:53 47.47337 7.63117 36030 ft 425 kts 276°
2026-05-07 17:54 47.48610 7.54556 36024 ft 427 kts 283°
2026-05-07 17:54 47.49830 7.47479 36015 ft 428 kts 283°
2026-05-07 17:55 47.51282 7.38931 36033 ft 429 kts 282°
2026-05-07 17:55 47.52709 7.30346 36023 ft 430 kts 282°
2026-05-07 17:56 47.54120 7.21752 36030 ft 430 kts 282°
2026-05-07 17:56 47.55528 7.13131 36030 ft 431 kts 282°
2026-05-07 17:57 47.56927 7.04515 36023 ft 431 kts 282°
2026-05-07 17:57 47.58321 6.95894 36027 ft 431 kts 282°
2026-05-07 17:58 47.59710 6.87260 36036 ft 430 kts 282°
2026-05-07 17:58 47.61092 6.78622 36021 ft 430 kts 282°
2026-05-07 17:59 47.63044 6.70250 36027 ft 434 kts 297°
2026-05-07 17:59 47.66172 6.62591 36029 ft 435 kts 299°
2026-05-07 18:00 47.69331 6.54937 36023 ft 435 kts 298°
2026-05-07 18:00 47.72459 6.47254 36032 ft 435 kts 298°
2026-05-07 18:01 47.75569 6.39544 36015 ft 436 kts 298°
2026-05-07 18:01 47.78675 6.31805 36030 ft 435 kts 298°
2026-05-07 18:02 47.83326 6.20172 36048 ft 436 kts 298°
2026-05-07 18:03 47.86401 6.12457 36048 ft 436 kts 298°
2026-05-07 18:03 47.89493 6.04676 36044 ft 436 kts 298°
2026-05-07 18:04 47.92596 5.96845 36044 ft 436 kts 298°
2026-05-07 18:04 47.95658 5.89095 36046 ft 437 kts 298°
2026-05-07 18:05 47.98734 5.81288 36051 ft 437 kts 298°
2026-05-07 18:05 48.01808 5.73461 36051 ft 437 kts 298°
2026-05-07 18:06 48.04882 5.65612 36049 ft 437 kts 298°
2026-05-07 18:06 48.07947 5.57764 36047 ft 437 kts 297°
2026-05-07 18:07 48.11009 5.49902 36051 ft 437 kts 297°
2026-05-07 18:07 48.14067 5.42024 36048 ft 437 kts 297°
2026-05-07 18:08 48.17119 5.34139 36052 ft 438 kts 297°
2026-05-07 18:08 48.20181 5.26205 36046 ft 438 kts 297°
2026-05-07 18:09 48.23214 5.18322 36046 ft 438 kts 297°
2026-05-07 18:09 48.26255 5.10398 36048 ft 438 kts 297°
2026-05-07 18:10 48.29288 5.02467 36049 ft 438 kts 297°
2026-05-07 18:10 48.32318 4.94523 36050 ft 438 kts 297°
2026-05-07 18:11 48.35339 4.86577 36048 ft 438 kts 297°
2026-05-07 18:11 48.38359 4.78609 36046 ft 438 kts 297°
2026-05-07 18:12 48.41372 4.70637 36048 ft 438 kts 297°
2026-05-07 18:12 48.44380 4.62653 36044 ft 438 kts 297°
2026-05-07 18:13 48.47382 4.54663 36044 ft 438 kts 297°
2026-05-07 18:13 48.50380 4.46657 36046 ft 439 kts 297°
2026-05-07 18:14 48.53374 4.38640 36045 ft 439 kts 297°
2026-05-07 18:14 48.56345 4.30659 36049 ft 439 kts 297°
2026-05-07 18:15 48.59328 4.22619 36050 ft 439 kts 297°
2026-05-07 18:15 48.62315 4.14545 36048 ft 440 kts 297°
2026-05-07 18:16 48.65295 4.06468 36047 ft 440 kts 297°
2026-05-07 18:16 48.68271 3.98376 36048 ft 440 kts 297°
2026-05-07 18:17 48.71317 3.90330 36039 ft 442 kts 303°
2026-05-07 18:17 48.75532 3.83497 36038 ft 448 kts 320°
2026-05-07 18:18 48.80596 3.77965 36043 ft 449 kts 322°
2026-05-07 18:18 48.85720 3.72493 36046 ft 450 kts 322°
2026-05-07 18:19 48.90810 3.66978 36047 ft 450 kts 321°
2026-05-07 18:19 48.95893 3.61406 36052 ft 450 kts 321°
2026-05-07 18:20 49.00956 3.55825 36049 ft 450 kts 321°
2026-05-07 18:20 49.06035 3.50213 36054 ft 450 kts 321°
2026-05-07 18:21 49.11105 3.44597 36051 ft 450 kts 321°
2026-05-07 18:21 49.16174 3.38969 36045 ft 450 kts 321°
2026-05-07 18:22 49.21234 3.33337 36049 ft 450 kts 321°
2026-05-07 18:22 49.26262 3.27726 36064 ft 450 kts 321°
2026-05-07 18:23 49.31324 3.22062 36051 ft 450 kts 321°
2026-05-07 18:23 49.36380 3.16391 36046 ft 450 kts 321°
2026-05-07 18:24 49.41425 3.10716 36054 ft 449 kts 321°
2026-05-07 18:24 49.46465 3.05032 36046 ft 449 kts 321°
2026-05-07 18:25 49.51484 2.99358 36049 ft 450 kts 321°
2026-05-07 18:25 49.56486 2.93688 36047 ft 450 kts 321°
2026-05-07 18:26 49.61522 2.87963 36052 ft 450 kts 321°
2026-05-07 18:26 49.66559 2.82224 36047 ft 450 kts 321°
2026-05-07 18:27 49.71622 2.76438 36057 ft 450 kts 321°
2026-05-07 18:27 49.76614 2.70720 36059 ft 450 kts 321°
2026-05-07 18:28 49.81715 2.64971 36051 ft 451 kts 321°
2026-05-07 18:28 49.86825 2.59330 36048 ft 451 kts 322°
2026-05-07 18:29 49.91895 2.53712 36049 ft 451 kts 321°
2026-05-07 18:29 49.97021 2.47998 36053 ft 451 kts 321°
2026-05-07 18:30 50.02114 2.42297 36050 ft 451 kts 321°
2026-05-07 18:30 50.07208 2.36578 36048 ft 451 kts 321°
2026-05-07 18:31 50.12294 2.30855 36052 ft 451 kts 321°
2026-05-07 18:31 50.17388 2.25107 36062 ft 451 kts 321°
2026-05-07 18:32 50.22434 2.19397 36049 ft 451 kts 321°
2026-05-07 18:32 50.27509 2.13640 36054 ft 451 kts 321°
2026-05-07 18:33 50.32588 2.07863 36055 ft 451 kts 321°
2026-05-07 18:33 50.37650 2.02050 36038 ft 450 kts 319°
2026-05-07 18:34 50.42414 1.95731 36054 ft 449 kts 316°
2026-05-07 18:34 50.47082 1.89219 36050 ft 448 kts 316°
2026-05-07 18:35 50.51735 1.82794 36049 ft 448 kts 316°
2026-05-07 18:35 50.56439 1.76343 36050 ft 448 kts 316°
2026-05-07 18:36 50.61134 1.69896 36047 ft 448 kts 316°
2026-05-07 18:36 50.65819 1.63441 36056 ft 447 kts 316°
2026-05-07 18:37 50.69743 1.58017 36056 ft 447 kts 316°
2026-05-07 18:37 50.74422 1.51534 36056 ft 447 kts 316°
2026-05-07 18:38 50.79091 1.45049 36049 ft 447 kts 316°
2026-05-07 18:38 50.83758 1.38558 36066 ft 447 kts 316°
2026-05-07 18:39 50.88397 1.32088 36077 ft 447 kts 316°
2026-05-07 18:39 50.93066 1.25557 36067 ft 447 kts 315°
2026-05-07 18:40 50.97722 1.19026 36074 ft 447 kts 315°
2026-05-07 18:40 51.02377 1.12478 36074 ft 447 kts 315°
2026-05-07 18:41 51.07022 1.05919 36074 ft 447 kts 315°
2026-05-07 18:41 51.11510 0.99091 36075 ft 446 kts 313°
2026-05-07 18:42 51.15947 0.92092 36027 ft 446 kts 312°
2026-05-07 18:42 51.20370 0.85141 35988 ft 446 kts 313°
2026-05-07 18:43 51.24801 0.78212 35952 ft 447 kts 313°
2026-05-07 18:43 51.29244 0.71261 35937 ft 447 kts 313°
2026-05-07 18:44 51.33676 0.64306 36085 ft 447 kts 313°
2026-05-07 18:44 51.38108 0.57331 36074 ft 447 kts 313°
2026-05-07 18:45 51.42536 0.50341 36069 ft 447 kts 313°
2026-05-07 18:45 51.46962 0.43332 36072 ft 447 kts 313°
2026-05-07 18:46 51.51384 0.36311 36071 ft 447 kts 312°
2026-05-07 18:46 51.55798 0.29282 36072 ft 447 kts 312°
2026-05-07 18:47 51.60182 0.22280 36080 ft 447 kts 312°
2026-05-07 18:47 51.64593 0.15216 36071 ft 447 kts 312°
2026-05-07 18:48 51.68963 0.08098 36077 ft 447 kts 311°
2026-05-07 18:48 51.73337 0.00885 36070 ft 447 kts 311°
2026-05-07 18:49 51.77681 -0.06294 36068 ft 447 kts 311°
2026-05-07 18:49 51.81990 -0.13424 36083 ft 447 kts 311°
2026-05-07 18:50 51.86320 -0.20605 36045 ft 447 kts 311°
2026-05-07 18:50 51.90654 -0.27813 36051 ft 447 kts 311°
2026-05-07 18:51 51.94988 -0.35043 36054 ft 447 kts 311°
2026-05-07 18:51 51.99312 -0.42277 36025 ft 447 kts 311°
2026-05-07 18:51 52.01487 -0.45927 35748 ft 451 kts 311°
2026-05-07 18:52 52.03658 -0.49573 35497 ft 449 kts 311°
2026-05-07 18:52 52.05816 -0.53200 35282 ft 445 kts 311°
2026-05-07 18:52 52.07968 -0.56825 35030 ft 444 kts 311°
2026-05-07 18:52 52.10111 -0.60441 34787 ft 444 kts 311°
2026-05-07 18:53 52.12249 -0.64053 34517 ft 443 kts 311°
2026-05-07 18:53 52.14394 -0.67683 33832 ft 444 kts 311°
2026-05-07 18:53 52.16529 -0.71302 33160 ft 444 kts 311°
2026-05-07 18:53 52.18669 -0.74932 32501 ft 443 kts 311°
2026-05-07 18:54 52.20803 -0.78559 31805 ft 443 kts 311°
2026-05-07 18:54 52.22933 -0.82183 31106 ft 443 kts 311°
2026-05-07 18:54 52.25191 -0.85624 30385 ft 447 kts 319°
2026-05-07 18:54 52.27766 -0.88466 29622 ft 449 kts 326°
2026-05-07 18:55 52.30463 -0.91084 28806 ft 450 kts 327°
2026-05-07 18:55 52.33165 -0.93684 28022 ft 450 kts 327°
2026-05-07 18:55 52.35838 -0.96281 27526 ft 444 kts 327°
2026-05-07 18:55 52.38473 -0.98875 26929 ft 439 kts 326°
2026-05-07 18:56 52.41070 -1.01457 26377 ft 435 kts 326°
2026-05-07 18:56 52.43642 -1.04029 25808 ft 432 kts 326°
2026-05-07 18:56 52.46201 -1.06591 25258 ft 428 kts 326°
2026-05-07 18:56 52.48727 -1.09122 24728 ft 424 kts 326°
2026-05-07 18:57 52.51231 -1.11649 24205 ft 421 kts 326°
2026-05-07 18:57 52.53720 -1.14176 23708 ft 418 kts 326°
2026-05-07 18:57 52.56184 -1.16682 23135 ft 415 kts 326°
2026-05-07 18:57 52.58614 -1.19145 22532 ft 405 kts 326°
2026-05-07 18:58 52.61002 -1.21561 21836 ft 403 kts 326°
2026-05-07 18:58 52.63425 -1.24018 20764 ft 414 kts 326°
2026-05-07 18:58 52.65885 -1.26514 19971 ft 417 kts 326°
2026-05-07 18:58 52.68350 -1.29018 19415 ft 414 kts 326°
2026-05-07 18:59 52.70789 -1.31499 18918 ft 409 kts 326°
2026-05-07 18:59 52.73205 -1.33955 18374 ft 406 kts 326°
2026-05-07 18:59 52.75603 -1.36396 17777 ft 404 kts 326°
2026-05-07 18:59 52.77993 -1.38831 17156 ft 402 kts 326°
2026-05-07 19:00 52.80366 -1.41251 16543 ft 400 kts 326°
2026-05-07 19:00 52.82732 -1.43669 15983 ft 397 kts 326°
2026-05-07 19:00 52.85042 -1.46033 15424 ft 395 kts 326°
2026-05-07 19:00 52.87396 -1.48445 14861 ft 393 kts 326°
2026-05-07 19:01 52.89683 -1.50792 14338 ft 391 kts 326°
2026-05-07 19:01 52.91988 -1.53160 13836 ft 388 kts 326°
2026-05-07 19:01 52.94275 -1.55512 13327 ft 384 kts 326°
2026-05-07 19:01 52.96561 -1.57867 12851 ft 379 kts 326°
2026-05-07 19:02 52.98790 -1.60164 12381 ft 374 kts 326°
2026-05-07 19:02 53.00986 -1.62431 11946 ft 370 kts 326°
2026-05-07 19:02 53.03104 -1.64619 11813 ft 357 kts 325°
2026-05-07 19:02 53.05183 -1.66810 11709 ft 342 kts 321°
2026-05-07 19:03 53.06820 -1.69467 11612 ft 326 kts 306°
2026-05-07 19:03 53.08221 -1.72326 11521 ft 314 kts 306°
2026-05-07 19:03 53.09614 -1.75104 11223 ft 311 kts 307°
2026-05-07 19:03 53.11007 -1.77840 10920 ft 308 kts 307°
2026-05-07 19:04 53.12395 -1.80548 10575 ft 307 kts 307°
2026-05-07 19:04 53.13783 -1.83246 10206 ft 307 kts 307°
2026-05-07 19:04 53.15168 -1.85940 9841 ft 306 kts 307°
2026-05-07 19:04 53.16550 -1.88630 9432 ft 305 kts 307°
2026-05-07 19:05 53.17936 -1.91332 8943 ft 307 kts 307°
2026-05-07 19:05 53.19336 -1.94064 8365 ft 312 kts 308°
2026-05-07 19:05 53.20739 -1.96803 8122 ft 306 kts 308°
2026-05-07 19:05 53.22102 -1.99463 8023 ft 296 kts 308°
2026-05-07 19:06 53.23626 -2.01732 8010 ft 298 kts 329°
2026-05-07 19:06 53.27737 -2.02486 8008 ft 310 kts 16°
2026-05-07 19:06 53.29711 -2.00988 7710 ft 316 kts 28°
2026-05-07 19:07 53.31633 -1.99164 7359 ft 317 kts 30°
2026-05-07 19:07 53.33530 -1.97318 7071 ft 313 kts 30°
2026-05-07 19:07 53.35368 -1.95521 7012 ft 298 kts 30°
2026-05-07 19:07 53.37102 -1.93824 6989 ft 279 kts 30°
2026-05-07 19:08 53.38718 -1.92241 7002 ft 262 kts 30°
2026-05-07 19:08 53.40264 -1.90723 7009 ft 255 kts 30°
2026-05-07 19:08 53.41783 -1.89230 7011 ft 253 kts 30°
2026-05-07 19:08 53.43320 -1.87717 6820 ft 261 kts 30°
2026-05-07 19:09 53.44909 -1.86157 6399 ft 268 kts 30°
2026-05-07 19:09 53.46536 -1.84573 5840 ft 272 kts 30°
2026-05-07 19:09 53.48187 -1.82982 5301 ft 275 kts 30°
2026-05-07 19:09 53.49855 -1.81410 4767 ft 277 kts 26°
2026-05-07 19:10 53.51715 -1.80618 4257 ft 277 kts 358°
2026-05-07 19:10 53.53517 -1.81396 4070 ft 261 kts 327°
2026-05-07 19:10 53.54671 -1.83504 3995 ft 237 kts 288°
2026-05-07 19:10 53.54777 -1.86113 3992 ft 221 kts 248°
2026-05-07 19:11 53.54049 -1.88319 4031 ft 216 kts 234°
2026-05-07 19:11 53.53213 -1.90432 4020 ft 223 kts 232°
2026-05-07 19:11 53.52291 -1.92516 3993 ft 219 kts 229°
2026-05-07 19:11 53.51372 -1.94466 3974 ft 206 kts 228°
2026-05-07 19:12 53.50514 -1.96248 3978 ft 186 kts 228°
2026-05-07 19:12 53.49741 -1.97845 3980 ft 168 kts 227°
2026-05-07 19:12 53.49011 -1.99339 4000 ft 162 kts 227°
2026-05-07 19:12 53.48300 -2.00797 3991 ft 161 kts 227°
2026-05-07 19:13 53.47585 -2.02270 3821 ft 164 kts 227°
2026-05-07 19:13 53.46895 -2.03696 3610 ft 155 kts 227°
2026-05-07 19:13 53.46224 -2.05079 3445 ft 153 kts 226°
2026-05-07 19:13 53.45538 -2.06489 3189 ft 153 kts 227°
2026-05-07 19:14 53.44896 -2.07819 2970 ft 141 kts 227°
2026-05-07 19:14 53.44296 -2.09058 2808 ft 135 kts 226°
2026-05-07 19:14 53.43696 -2.10292 2636 ft 138 kts 227°
2026-05-07 19:14 53.43090 -2.11544 2442 ft 138 kts 227°
2026-05-07 19:15 53.42487 -2.12790 2256 ft 137 kts 227°
2026-05-07 19:15 53.41887 -2.14028 2088 ft 137 kts 226°
2026-05-07 19:15 53.41288 -2.15265 1900 ft 137 kts 226°
2026-05-07 19:15 53.40684 -2.16512 1721 ft 139 kts 227°
2026-05-07 19:16 53.40282 -2.17340 1586 ft 138 kts 226°
2026-05-07 19:16 53.39671 -2.18574 1408 ft 138 kts 228°
2026-05-07 19:16 53.39068 -2.19850 1223 ft 141 kts 228°
2026-05-07 19:16 53.38459 -2.21113 1029 ft 140 kts 228°
2026-05-07 19:17 53.37844 -2.22380 840 ft 143 kts 227°
2026-05-07 19:17 53.37219 -2.23674 657 ft 142 kts 232°
2026-05-07 19:17 53.36591 -2.24958 455 ft 143 kts 229°
2026-05-07 19:17 53.35978 -2.26260 285 ft 141 kts 228°
2026-05-07 19:18 53.35443 -2.27348 246 ft 81 kts 214°
2026-05-07 19:18 53.35266 -2.27791 236 ft 40 kts 256°
2026-05-07 19:18 53.35234 -2.28110 230 ft 22 kts 264°